Regional Weather Roundup
Issued by NWS

Home | Current Version | Previous Version | Graphics & Text | Print | Product List | Glossary Off
Versions: 1 2 3 4 5 6 7 8 9 10 11 12 13 14 15 16 17 18 19 20 21 22 23 24 25 26 27 28 29 30 31 32 33 34 35 36 37 38 39 40 41 42 43 44 45 46 47 48 49 50

000
ASUS43 KDMX 110001
RWRIA

WEATHER ROUNDUP FOR IOWA
NATIONAL WEATHER SERVICE DES MOINES IA
600 PM CST SUN DEC 10 2017

NOTE: "FAIR" INDICATES FEW OR NO CLOUDS BELOW 12,000 FEET WITH NO
SIGNIFICANT WEATHER AND/OR OBSTRUCTIONS TO VISIBILITY.

* - THESE STATIONS ARE NOT NWS STATIONS...THUS NOT UNDER NWS
QUALITY CONTROL.  THEY ALSO DO NOT REPORT WEATHER SUCH
AS PRECIPITATION OR FOG.

IAZ001>003-012>014-020>022-031>034-043>046-110100-
   NORTHWEST IOWA

CITY           SKY/WX    TMP DP  RH WIND       PRES   REMARKS
CARROLL *      CLOUDY    37  25  60 NW9       30.09R WCI  31
DENISON *      CLEAR     39  25  56 CALM      30.10F
LE MARS *      CLEAR     36  27  69 W5        30.09S WCI  32
ORANGE CITY *  CLEAR     34  30  86 W6        30.07S WCI  29
SHELDON *      PTCLDY    34  28  80 W6        30.05S WCI  29
SIOUX CITY     CLEAR     36  24  62 CALM      30.10R
6HR MIN TEMP:  36; 6HR MAX TEMP:  49;

SPENCER        CLOUDY    32  26  78 CALM      30.07S
6HR MIN TEMP:  31; 6HR MAX TEMP:  42;

STORM LAKE *   CLOUDY    34  25  69 W8        30.08R WCI  27
$$

IAZ055>058-069>071-079>083-090>094-110100-
   SOUTHWEST IOWA

CITY           SKY/WX    TMP DP  RH WIND       PRES   REMARKS
ATLANTIC *     CLEAR     36  23  60 W6        30.11R WCI  31
AUDUBON *      CLEAR     39  25  56 CALM      30.11R
CLARINDA *     CLEAR     37  25  60 CALM        N/A
COUNCIL BLFS * CLEAR     46  27  46 NW6       30.11R
CRESTON *      CLEAR     37  25  60 W8        30.11R WCI  31
HARLAN  *      CLEAR     37  25  60 CALM      30.13S
LAMONI         CLEAR     38  23  55 W8        30.09R WCI  32
6HR MIN TEMP:  38; 6HR MAX TEMP:  51;

RED OAK *      CLEAR     34  23  64 CALM      30.12R
SHENANDOAH *   CLEAR     39  23  52 CALM      30.13R
$$

IAZ047>049-059>061-072>074-084-110100-
   CENTRAL IOWA

CITY           SKY/WX    TMP DP  RH WIND       PRES   REMARKS
AMES           CLOUDY    35  24  64 NW5       30.08R WCI  31
6HR MIN TEMP:  34; 6HR MAX TEMP:  46;

ANKENY *       CLOUDY    41  27  56 W6        30.10R
BOONE *        CLOUDY    39  25  56 NW7       30.07R WCI  34
CHARITON *     CLEAR     41  25  52 NW5       30.08R
DES MOINES     PTCLDY    41  25  53 NW6       30.09R
6HR MIN TEMP:  40; 6HR MAX TEMP:  47;

GRINNELL*      CLEAR     34  23  64 CALM      30.08R
KNOXVILLE *    CLEAR     37  23  56 NW6       30.07R WCI  33
MARSHALLTOWN   CLEAR     30  21  69 NW8       30.07R WCI  22
6HR MIN TEMP:  29; 6HR MAX TEMP:  41;

NEWTON *       PTCLDY    37  23  56 CALM      30.07R
PELLA *        CLEAR     36  24  62 NW5       30.10R WCI  32
$$

IAZ004>006-015-016-023>025-035-036-110100-
   NORTH CENTRAL IOWA

CITY           SKY/WX    TMP DP  RH WIND       PRES   REMARKS
ALGONA *       CLOUDY    36  25  64 NW3       30.06S
CLARION *      CLOUDY    32  23  69 NW5       30.07R WCI  27
ESTHERVILLE    CLOUDY    32  28  85 W6        30.06S WCI  26
6HR MIN TEMP:  32; 6HR MAX TEMP:  39;

FORT DODGE *   CLOUDY    35  24  64 NW3       30.08R
MASON CITY     MOCLDY    26  19  74 W3        30.07R
6HR MIN TEMP:  24; 6HR MAX TEMP:  36;

FOREST CITY *  CLOUDY    32  25  74 CALM      30.06R
IOWA FALLS *     N/A     29  20  69 NW5       30.08R WCI  24
$$

IAZ007>011-017>019-026>030-037>042-050>054-066-110100-
   NORTHEAST IOWA

CITY           SKY/WX    TMP DP  RH WIND       PRES   REMARKS
CEDAR RAPIDS   CLEAR     28  21  75 CALM      30.06R
6HR MIN TEMP:  26; 6HR MAX TEMP:  39;

CHARLES CITY * CLOUDY    27  21  80 NW6       30.07R WCI  20
CLINTON *      CLOUDY    29  22  75 N7        30.08R WCI  22
DECORAH *      CLOUDY    27  21  80 CALM      30.04R
DUBUQUE        CLOUDY    25  19  78 N6        30.05R WCI  18
6HR MIN TEMP:  25; 6HR MAX TEMP:  32;

MONTICELLO *   CLOUDY    28  21  74 N5        30.06S WCI  23
OELWEIN *      MOCLDY    27  23  86 N5        30.06R WCI  21
WATERLOO       CLEAR     26  19  74 NW5       30.06R WCI  20
6HR MIN TEMP:  26; 6HR MAX TEMP:  37;

$$

IAZ064-065-067-068-078-110100-
   EAST CENTRAL IOWA

CITY           SKY/WX    TMP DP  RH WIND       PRES   REMARKS
DAVENPORT      MOCLDY    29  20  69 NW7       30.10R WCI  22
6HR MIN TEMP:  28; 6HR MAX TEMP:  38;

IOWA CITY      CLEAR     33  22  63 NW3       30.08S
6HR MIN TEMP:  33; 6HR MAX TEMP:  41;

MT. PLEASANT * CLEAR     35  23  60 NW3       30.09R
MUSCATINE *    CLEAR     30  21  69 N6        30.10R WCI  24
QUAD CITIES    CLOUDY    33  23  66 NW8       30.07  WCI  26
6HR MIN TEMP:  33; 6HR MAX TEMP:  41;

$$

IAZ062-063-075>077-085>089-095>099-110100-
   SOUTHEAST IOWA

CITY           SKY/WX    TMP DP  RH WIND       PRES   REMARKS
BURLINGTON     CLEAR     35  24  64 NW5       30.08R WCI  31
6HR MIN TEMP:  35; 6HR MAX TEMP:  44;

FAIRFIELD *    CLEAR     32  21  64 NW6       30.08R WCI  26
FORT MADISON * CLEAR     36  25  64 NW5       30.10R WCI  32
KEOKUK *       CLEAR     37  25  60 N6        30.09R WCI  33
OSKALOOSA *      N/A     32  21  64 N3        30.09R
OTTUMWA        CLEAR     35  23  61 NW6       30.08R WCI  30
6HR MIN TEMP:  35; 6HR MAX TEMP:  46;

WASHINGTON *   CLEAR     32  23  69 NW7       30.09R WCI  26
$$

ABBREVIATIONS USED IN REMARKS
   TC - TEMPERATURES IN CELSIUS
  WCI - WIND CHILL INDEX
   HX - HEAT INDEX
  VSB - VISIBILITY
$$




USA.gov is the U.S. government's official web portal to all federal, state and local government web resources and services.